Mosby, MO

9:23 PM CST on December 04, 2016 (GMT -0600)
Clay County Regional

Weather History for KGPH - November, 2012

Change the Weather History Date:

Monday, November 5, 2012

  Actual Average (KMKC) Record (KMKC)
Temperature  
Mean Temperature 44 °F -  
Max Temperature 48 °F 55 °F 73 °F (2008)
Min Temperature 41 °F 39 °F 32 °F (2010)
Degree Days  
Heating Degree Days 20    
Moisture  
Dew Point 42 °F    
Average Humidity 93    
Maximum Humidity 100    
Minimum Humidity 76    
Precipitation  
Precipitation 0.00 in - - ()
Sea Level Pressure  
Sea Level Pressure 30.05 in    
Wind  
Wind Speed 4 mph ()    
Max Wind Speed 14 mph    
Max Gust Speed 17 mph    
Visibility 6.7 miles    
Events Rain    
Averages and records for this station are not official NWS values.
T = Trace of Precipitation, MM = Missing Value Source: Averaged Metar Reports

Daily Weather History Graph

Daily Weather History Graph

Search for Another Location

Airport or City:

Trip Planner

Search our weather history database for the weather conditions in past years. The results will help you decide how hot, cold, wet, or windy it might be!

Date:

Astronomy

Nov. 05, 2012 Rise Set
Actual Time 6:50 AM CST 5:10 PM CST
Civil Twilight 6:22 AM CST 5:39 PM CST
Nautical Twilight 5:50 AM CST 6:10 PM CST
Astronomical Twilight 5:18 AM CST 6:42 PM CST
Moon 10:49 PM CST 12:09 PM CST
Length of Visible Light 11h 16m
Length of Day
10h 20m
Waning Gibbous, 62% of the Moon is Illuminated
Nov 5
Waning Gibbous
Nov 6
Last Quarter
Nov 13
New
Nov 20
First Quarter
Nov 28
Full

Hourly Weather History & Observations

Time (CST) Temp. Windchill Dew Point Humidity Pressure Visibility Wind Dir Wind Speed Gust Speed Precip Events Conditions
12:15 AM 48.2 °F - 41.0 °F 76% 30.03 in 10.0 mi Calm Calm - N/A Rain Light Rain
12:35 AM 46.4 °F 45.2 °F 41.0 °F 81% 30.03 in 10.0 mi ESE 3.5 mph - N/A Rain Light Rain
12:55 AM 46.4 °F 44.3 °F 42.8 °F 87% 30.02 in 10.0 mi ESE 4.6 mph - N/A Rain Rain
1:15 AM 46.4 °F 45.2 °F 42.8 °F 87% 30.02 in 10.0 mi ENE 3.5 mph - N/A Rain Light Rain
1:35 AM 46.4 °F 44.3 °F 42.8 °F 87% 30.01 in 10.0 mi East 4.6 mph - N/A   Unknown
1:55 AM 44.6 °F 42.2 °F 42.8 °F 93% 30.00 in 10.0 mi East 4.6 mph - N/A   Unknown
2:15 AM 44.6 °F - 42.8 °F 93% 29.99 in 10.0 mi Calm Calm - N/A   Unknown
2:35 AM 44.6 °F 43.1 °F 42.8 °F 93% 29.99 in 7.0 mi East 3.5 mph - N/A Rain Light Rain
3:15 AM 44.6 °F - 42.8 °F 93% 29.99 in 7.0 mi Calm Calm - N/A Rain Light Rain
3:35 AM 44.6 °F - 42.8 °F 93% 29.98 in 7.0 mi Calm Calm - N/A   Light Drizzle
3:55 AM 44.6 °F - 42.8 °F 93% 29.98 in 5.0 mi Calm Calm - N/A Rain Light Rain
4:15 AM 44.6 °F - 42.8 °F 93% 29.98 in 4.0 mi Calm Calm - N/A Rain Light Rain
4:35 AM 44.6 °F - 42.8 °F 93% 29.98 in 2.0 mi Calm Calm - N/A Rain Rain
4:55 AM 44.6 °F 43.1 °F 42.8 °F 93% 29.99 in 2.5 mi NNW 3.5 mph - N/A Rain Rain
5:15 AM 44.6 °F 43.1 °F 42.8 °F 93% 29.98 in 3.0 mi North 3.5 mph - N/A Rain Light Rain
5:35 AM 44.6 °F - 42.8 °F 93% 29.98 in 2.5 mi Calm Calm - N/A Rain Light Rain
5:55 AM 44.6 °F - 42.8 °F 93% 29.97 in 3.0 mi Calm Calm - N/A   Light Drizzle
6:15 AM 44.6 °F - 42.8 °F 93% 29.97 in 4.0 mi Calm Calm - N/A   Overcast
6:35 AM 44.6 °F - 42.8 °F 93% 29.97 in 2.5 mi Calm Calm - N/A Rain Rain
7:15 AM 44.6 °F - 44.6 °F 100% 29.98 in 2.5 mi Calm Calm - N/A   Drizzle
7:35 AM 44.6 °F - 44.6 °F 100% 29.98 in 1.0 mi Calm Calm - N/A   Drizzle
7:55 AM 44.6 °F - 44.6 °F 100% 29.99 in 1.5 mi Calm Calm - N/A   Light Drizzle
8:15 AM 44.6 °F - 44.6 °F 100% 29.99 in 1.2 mi Calm Calm - N/A   Heavy Drizzle
8:35 AM 44.6 °F - 44.6 °F 100% 30.00 in 2.0 mi Calm Calm - N/A   Mist
8:55 AM 46.4 °F 42.9 °F 46.4 °F 100% 30.00 in 4.0 mi North 6.9 mph - N/A   Overcast
9:15 AM 46.4 °F 41.5 °F 44.6 °F 93% 30.00 in 7.0 mi North 10.4 mph - N/A   Light Drizzle
9:35 AM 46.4 °F 41.1 °F 44.6 °F 93% 30.01 in 7.0 mi NNW 11.5 mph - N/A   Overcast
9:55 AM 44.6 °F 39.7 °F 42.8 °F 93% 30.02 in 5.0 mi North 9.2 mph - N/A   Drizzle
10:15 AM 44.6 °F 39.7 °F 42.8 °F 93% 30.03 in 5.0 mi North 9.2 mph - N/A   Overcast
10:35 AM 44.6 °F 38.4 °F 42.8 °F 93% 30.03 in 7.0 mi North 12.7 mph - N/A   Overcast
10:55 AM 44.6 °F 38.4 °F 42.8 °F 93% 30.04 in 7.0 mi North 12.7 mph - N/A   Overcast
11:15 AM 42.8 °F 37.5 °F 42.8 °F 100% 30.05 in 5.0 mi North 9.2 mph - N/A   Overcast
11:35 AM 42.8 °F 37.0 °F 42.8 °F 100% 30.05 in 5.0 mi North 10.4 mph - N/A   Overcast
12:15 PM 42.8 °F 36.6 °F 41.0 °F 93% 30.05 in 7.0 mi North 11.5 mph - N/A   Overcast
12:35 PM 42.8 °F 35.8 °F 41.0 °F 93% 30.05 in 5.0 mi North 13.8 mph 17.3 mph N/A   Overcast
12:55 PM 42.8 °F 36.6 °F 41.0 °F 93% 30.05 in 5.0 mi North 11.5 mph - N/A   Overcast
1:15 PM 42.8 °F 35.8 °F 41.0 °F 93% 30.05 in 7.0 mi North 13.8 mph - N/A   Overcast
1:35 PM 42.8 °F 36.6 °F 41.0 °F 93% 30.05 in 7.0 mi North 11.5 mph - N/A   Overcast
2:15 PM 42.8 °F 36.6 °F 41.0 °F 93% 30.05 in 7.0 mi North 11.5 mph - N/A   Overcast
2:35 PM 42.8 °F 36.6 °F 41.0 °F 93% 30.05 in 7.0 mi North 11.5 mph - N/A   Overcast
2:55 PM 42.8 °F 37.5 °F 41.0 °F 93% 30.05 in 10.0 mi North 9.2 mph - N/A   Overcast
3:15 PM 42.8 °F 37.5 °F 41.0 °F 93% 30.06 in 10.0 mi North 9.2 mph - N/A   Overcast
3:35 PM 42.8 °F 37.0 °F 41.0 °F 93% 30.06 in 10.0 mi North 10.4 mph - N/A   Overcast
3:55 PM 42.8 °F 38.6 °F 41.0 °F 93% 30.07 in 10.0 mi North 6.9 mph - N/A   Overcast
4:15 PM 42.8 °F 36.6 °F 41.0 °F 93% 30.07 in 10.0 mi North 11.5 mph - N/A   Overcast
4:35 PM 42.8 °F 37.0 °F 41.0 °F 93% 30.08 in 10.0 mi North 10.4 mph - N/A   Overcast
4:55 PM 42.8 °F 38.0 °F 41.0 °F 93% 30.09 in 5.0 mi North 8.1 mph - N/A   Overcast
5:15 PM 42.8 °F 38.0 °F 41.0 °F 93% 30.09 in 5.0 mi North 8.1 mph - N/A   Overcast
5:35 PM 41.0 °F 34.7 °F 41.0 °F 100% 30.10 in 4.0 mi North 10.4 mph - N/A   Overcast
5:55 PM 41.0 °F 34.7 °F 41.0 °F 100% 30.11 in 3.0 mi North 10.4 mph - N/A   Overcast
6:15 PM 41.0 °F 35.8 °F 41.0 °F 100% 30.12 in 5.0 mi North 8.1 mph - N/A   Overcast
6:35 PM 42.8 °F 38.6 °F 39.2 °F 87% 30.12 in 5.0 mi NNE 6.9 mph - N/A   Overcast
6:55 PM 42.8 °F 38.0 °F 39.2 °F 87% 30.12 in 7.0 mi North 8.1 mph - N/A   Overcast
7:15 PM 42.8 °F 39.3 °F 39.2 °F 87% 30.12 in 7.0 mi North 5.8 mph - N/A   Overcast
7:35 PM 42.8 °F 40.1 °F 39.2 °F 87% 30.11 in 7.0 mi NNE 4.6 mph - N/A   Overcast
7:55 PM 42.8 °F 40.1 °F 39.2 °F 87% 30.11 in 7.0 mi North 4.6 mph - N/A   Overcast
8:15 PM 42.8 °F - 39.2 °F 87% 30.11 in 7.0 mi Calm Calm - N/A   Overcast
8:35 PM 42.8 °F 41.1 °F 39.2 °F 87% 30.11 in 7.0 mi NNE 3.5 mph - N/A   Overcast
8:55 PM 42.8 °F - 39.2 °F 87% 30.11 in 10.0 mi Calm Calm - N/A   Overcast
9:15 PM 41.0 °F - 39.2 °F 93% 30.11 in 10.0 mi Calm Calm - N/A   Overcast
9:35 PM 41.0 °F 39.0 °F 39.2 °F 93% 30.11 in 10.0 mi NNE 3.5 mph - N/A   Overcast
9:55 PM 41.0 °F 38.0 °F 39.2 °F 93% 30.12 in 10.0 mi NNE 4.6 mph - N/A   Overcast
10:15 PM 41.0 °F 39.0 °F 39.2 °F 93% 30.12 in 10.0 mi NNE 3.5 mph - N/A   Unknown
10:35 PM 41.0 °F - 39.2 °F 93% 30.11 in 10.0 mi Calm Calm - N/A   Overcast
10:55 PM 41.0 °F - 39.2 °F 93% 30.10 in 10.0 mi Calm Calm - N/A   Overcast
11:15 PM 41.0 °F - 39.2 °F 93% 30.10 in 10.0 mi Calm Calm - N/A   Overcast
11:35 PM 41.0 °F - 39.2 °F 93% 30.10 in 10.0 mi Calm Calm - N/A   Overcast
11:55 PM 41.0 °F - 39.2 °F 93% 30.10 in 10.0 mi Calm Calm - N/A   Overcast